[[{"header":{"parameterUnit":"m.s-1","parameterCategory":1,"la1":30.2991,"la2":30.254,"lo1":-89.0895,"lo2":-89.0444,"dy":0.0017,"dx":0.0017,"nx":28,"ny":28,"refTime":"2025-05-17T21:00:00:Z","depth":0,"parameterNumber":2,"parameterNumberName":"U-component_of_WINDS"},"data":[0,0,0,0,0,0,0,0,0,0,0,0,0,0,0,0,0,0,0,0,0,0,0,0,0,0,0,0,0,0,0,0,0,0,0,0,0,0,0,0,0,0,0,0,0,0,0,0,0,0,0,0,0,0,0,0,0,0,2.1779,2.178,0,2.187,2.1871,2.1872,2.1856,2.1854,2.1853,2.1851,2.1945,2.1949,2.1953,0,0,0,0,0,0,0,0,0,0,0,0,0,2.159,2.1594,2.1779,2.178,2.1781,2.187,2.1871,2.1873,2.1856,2.1854,2.1852,2.185,2.1944,2.1948,2.1953,0,0,0,0,0,0,0,0,0,0,0,0,0,2.1676,2.1595,2.1779,2.1784,2.1785,2.187,2.1871,2.1873,2.1857,2.1854,2.1852,2.1849,2.1942,2.1948,2.1954,2.204,0,0,2.1972,2.1975,0,0,0,0,0,0,0,0,2.1671,2.1683,2.1782,2.1783,2.1785,2.1849,2.1839,2.1929,2.1857,2.1829,2.1851,2.1848,2.1915,2.1923,2.1946,2.2044,2.2048,2.1973,2.1977,2.1979,2.1981,0,0,0,0,0,0,0,2.1665,2.1679,2.1815,2.1783,2.1785,2.1781,2.1791,2.1856,2.1885,2.1832,2.1831,2.1842,2.1916,2.194,2.1948,2.2049,2.1973,2.1978,2.1982,2.1984,2.2222,2.2224,0,0,0,0,0,0,2.1658,2.1674,2.1812,2.1818,2.1721,2.1787,2.1797,2.1831,2.1884,2.189,2.1844,2.1841,2.1931,2.1941,2.1951,2.2054,2.1979,2.1985,2.1988,2.2219,2.2222,2.2225,0,0,0,0,0,0,2.1654,2.167,2.1808,2.1746,2.1763,2.1793,2.1831,2.1834,2.1858,2.1893,2.1898,2.1863,2.1929,2.1943,2.2017,2.2057,2.1987,2.1993,2.2216,2.222,2.2224,2.2261,0,0,0,0,0,0,2.1648,2.1669,2.1702,2.1746,2.1766,2.1873,2.1833,2.1838,2.1869,2.1866,2.1913,2.1918,2.1928,2.2009,2.2023,2.2064,2.1998,2.2212,2.2218,2.2222,2.2256,2.2266,2.2274,0,0,0,0,0,2.1642,2.1709,2.1703,2.172,2.1808,2.1876,2.1887,2.1897,2.1872,2.1905,2.1927,2.1917,2.205,2.2016,2.2033,2.2076,2.221,2.2216,2.2222,2.2252,2.2264,2.2274,0,0,0,0,0,0,2.1668,2.1715,2.1709,2.1793,2.183,2.1873,2.1915,2.1909,2.1955,2.195,2.1961,2.1972,2.2047,2.2069,2.2031,2.2161,2.2127,2.2136,2.2144,2.2155,2.2164,2.2157,2.2003,0,0,0,0,0,2.1683,2.1734,2.1773,2.1843,2.1862,2.1885,2.1915,2.192,2.1959,2.1975,2.2002,2.2041,2.2092,2.2125,2.2173,2.226,2.2269,2.2297,2.2306,2.2313,2.2321,2.2367,2.238,2.2245,2.2245,2.2245,0,0,2.1716,2.1748,2.1779,2.1849,2.1878,2.1931,2.1899,2.1956,2.1994,2.1983,2.2055,2.2077,2.2121,2.2202,2.2239,2.2222,2.2361,2.2321,2.2326,2.233,2.2375,2.2388,2.2399,2.2249,2.2248,2.2248,0,0,2.1802,2.1831,2.1892,2.1923,2.1968,2.1983,2.1998,2.2041,2.2055,2.2128,2.212,2.2167,2.2254,2.2285,2.2312,2.241,2.2401,2.2425,2.2471,2.2516,2.2527,2.2536,2.257,2.2582,2.2433,2.2434,2.2434,0,2.1836,2.1915,2.1925,2.1982,2.2013,2.2005,2.2067,2.2096,2.2155,2.2176,2.2157,2.2265,2.2295,2.2382,2.2406,2.2428,2.2445,2.242,2.2524,2.2534,2.2543,2.2575,2.2588,2.2436,2.2436,2.2436,2.2435,0,2.1955,2.201,2.2054,2.211,2.2146,2.2205,2.2224,2.2259,2.226,2.2277,2.2351,2.2386,2.2441,2.2462,2.2464,2.255,2.2538,2.2522,2.2487,2.2558,2.2589,2.2601,2.244,2.2439,2.2438,2.2437,0,0,2.2059,2.212,2.2136,2.2162,2.2211,2.2253,2.2312,2.2366,2.2395,2.2436,2.2485,2.2559,2.2544,2.2575,2.2581,2.2621,2.2695,2.2599,2.2601,2.2615,2.279,2.2801,2.2815,2.269,2.2692,2.2694,2.2786,0,2.2149,2.2253,2.2263,2.2356,2.2406,2.24,2.2451,2.2487,2.2505,2.255,2.2569,2.2621,2.2598,2.2616,2.2655,2.2677,2.273,2.2671,2.2735,2.2737,2.2723,2.2831,2.2844,2.2928,2.2798,2.28,2.2801,0,2.2267,2.2311,2.2409,2.2451,2.2472,2.2518,2.2568,2.2611,2.2651,2.2661,2.2696,2.2696,2.2757,2.272,2.2804,2.2764,2.2791,2.2805,2.2809,2.2814,2.2773,2.2839,2.2956,2.2968,2.2821,2.2819,2.2818,0,2.2332,2.2416,2.2485,2.2507,2.2558,2.259,2.2613,2.265,2.2682,2.2725,2.2746,2.2796,2.2823,2.2862,2.2876,2.2848,2.2958,2.2923,2.2968,2.2967,2.299,2.2989,2.3112,2.301,2.3009,2.3009,2.3009,0,2.243,2.249,2.2515,2.2557,2.2624,2.2636,2.2701,2.2722,2.2756,2.2802,2.28,2.2844,2.286,2.2906,2.2917,2.2984,2.2997,2.3006,2.3008,2.3006,2.3004,2.3023,2.3017,2.3013,2.3012,2.3011,2.3011,0,2.2514,2.2533,2.2607,2.2649,2.2661,2.2709,2.2744,2.2785,2.2802,2.2861,2.2875,2.2902,2.2956,2.2974,2.3039,2.3047,2.3124,2.3122,2.3111,2.3111,2.3154,2.3149,2.3293,2.3312,2.3198,2.3199,2.32,0,2.2574,2.262,2.2667,2.2698,2.2722,2.2771,2.2803,2.2817,2.285,2.2899,2.2934,2.2988,2.3031,2.3118,2.3143,2.3193,2.3191,2.3238,2.3198,2.3194,2.319,2.3187,2.3191,2.3245,2.3246,2.3247,2.3248,0,2.268,2.2687,2.2733,2.2783,2.2821,2.2861,2.2899,2.2924,2.2943,2.2981,2.3036,2.307,2.3136,2.3189,2.324,2.3263,2.3259,2.326,2.3273,2.327,2.3261,2.3266,2.313,2.3257,2.3256,2.3255,2.3255,2.3254,2.2754,2.2794,2.2833,2.2884,2.2914,2.295,2.299,2.3012,2.3058,2.3114,2.3119,2.3178,2.3217,2.3285,2.3311,2.3357,2.3344,2.3362,2.3367,2.3371,2.3374,2.3255,2.3366,2.3366,2.3366,2.3366,2.3366,0,2.2858,2.2883,2.293,2.2984,2.3024,2.3016,2.3058,2.3092,2.3145,2.3181,2.3224,2.3287,2.3338,2.3368,2.3419,2.345,2.345,2.3463,2.3461,2.3466,2.3383,2.3367,2.3463,2.3463,2.3463,2.3463,2.3463,2.3463,2.2917,2.2984,2.2996,2.3078,2.3103,2.3161,2.3185,2.3218,2.3247,2.3318,2.336,2.3379,2.3413,2.3466,2.3513,2.352,2.3539,2.3554,2.356,2.3482,2.3472,2.3462,2.3446,2.3558,2.3558,2.3638,2.3639,2.3639]},{"header":{"parameterUnit":"m.s-1","parameterCategory":1,"la1":30.2991,"la2":30.254,"lo1":-89.0895,"lo2":-89.0444,"dy":0.0017,"dx":0.0017,"nx":28,"ny":28,"refTime":"2025-05-17T21:00:00:Z","depth":0,"parameterNumber":3,"parameterNumberName":"V-component_of_WINDS"},"data":[0,0,0,0,0,0,0,0,0,0,0,0,0,0,0,0,0,0,0,0,0,0,0,0,0,0,0,0,0,0,0,0,0,0,0,0,0,0,0,0,0,0,0,0,0,0,0,0,0,0,0,0,0,0,0,0,0,0,4.1364,4.1365,0,4.1428,4.1428,4.1429,4.139,4.1388,4.1386,4.1384,4.1444,4.1447,4.145,0,0,0,0,0,0,0,0,0,0,0,0,0,4.1203,4.1206,4.1364,4.1365,4.1366,4.1428,4.1428,4.1429,4.139,4.1388,4.1386,4.1383,4.1443,4.1447,4.1451,0,0,0,0,0,0,0,0,0,0,0,0,0,4.127,4.1207,4.1364,4.1354,4.1353,4.1427,4.1429,4.143,4.139,4.1388,4.1385,4.1382,4.1442,4.1446,4.1451,4.1537,0,0,4.1466,4.1469,0,0,0,0,0,0,0,0,4.1267,4.1276,4.1354,4.1355,4.1354,4.1398,4.1394,4.1466,4.1391,4.1376,4.1384,4.1381,4.1431,4.1436,4.1454,4.154,4.1543,4.1467,4.147,4.1472,4.1473,0,0,0,0,0,0,0,4.1262,4.1273,4.1389,4.1356,4.1356,4.1344,4.1351,4.1407,4.1418,4.1377,4.1375,4.1383,4.143,4.1449,4.1455,4.1544,4.1467,4.1471,4.1474,4.1476,4.1703,4.1706,0,0,0,0,0,0,4.1259,4.127,4.1387,4.1391,4.1303,4.1349,4.1357,4.1387,4.1417,4.1419,4.1385,4.1381,4.1442,4.1449,4.1457,4.1561,4.1472,4.1477,4.1479,4.17,4.1704,4.1707,0,0,0,0,0,0,4.1256,4.127,4.1384,4.133,4.1344,4.1355,4.1389,4.1389,4.1409,4.1423,4.1425,4.1404,4.144,4.145,4.1518,4.1562,4.1479,4.1483,4.1697,4.1702,4.1706,4.1768,0,0,0,0,0,0,4.1251,4.1269,4.1303,4.1331,4.1347,4.1446,4.1392,4.1393,4.1418,4.1413,4.1441,4.1443,4.1439,4.1511,4.1523,4.1567,4.1487,4.1693,4.1699,4.1704,4.1762,4.1774,4.1784,0,0,0,0,0,4.1246,4.1316,4.1305,4.1319,4.139,4.1449,4.1458,4.1454,4.1422,4.1456,4.1465,4.1442,4.1555,4.1518,4.1532,4.1578,4.169,4.1697,4.1704,4.1757,4.1771,4.1784,0,0,0,0,0,0,4.1291,4.132,4.1307,4.139,4.1418,4.1442,4.1484,4.1469,4.1505,4.1498,4.149,4.1496,4.1568,4.1579,4.1538,4.1663,4.1617,4.1627,4.1653,4.1667,4.1678,4.1674,4.1491,0,0,0,0,0,4.1311,4.1359,4.138,4.1451,4.1466,4.1473,4.1498,4.1493,4.152,4.1531,4.1545,4.1572,4.1613,4.164,4.1679,4.1763,4.1768,4.1801,4.1812,4.1822,4.183,4.1876,4.1891,4.173,4.173,4.173,0,0,4.1352,4.1374,4.1404,4.1461,4.1481,4.1529,4.1483,4.1535,4.157,4.1539,4.1605,4.1616,4.1644,4.1721,4.1755,4.1733,4.1876,4.183,4.1838,4.1841,4.1884,4.19,4.1913,4.1735,4.1734,4.1733,0,0,4.1452,4.1473,4.1535,4.1557,4.159,4.1595,4.1609,4.1637,4.1644,4.171,4.1688,4.1728,4.18,4.1821,4.1841,4.195,4.193,4.1962,4.2021,4.2065,4.2078,4.2089,4.2128,4.2142,4.1971,4.1971,4.1971,0,4.1498,4.1572,4.1568,4.1623,4.1648,4.1624,4.1685,4.1706,4.1749,4.1767,4.1741,4.1831,4.1848,4.193,4.1957,4.1974,4.199,4.196,4.2077,4.2088,4.2098,4.2136,4.215,4.1975,4.1974,4.1974,4.1974,0,4.1627,4.1678,4.1724,4.1769,4.1799,4.1857,4.186,4.1891,4.1883,4.189,4.1957,4.1977,4.202,4.2039,4.203,4.2119,4.2104,4.2078,4.2032,4.2118,4.2152,4.2167,4.198,4.1979,4.1978,4.1977,0,0,4.1758,4.1801,4.1817,4.1838,4.1873,4.1911,4.1967,4.2011,4.2038,4.2068,4.2115,4.2176,4.2153,4.2176,4.2169,4.2208,4.2293,4.2177,4.2177,4.2198,4.2393,4.2413,4.243,4.228,4.2283,4.2285,4.2391,0,4.186,4.1961,4.1959,4.2052,4.2099,4.2077,4.2125,4.2151,4.2159,4.2198,4.2205,4.225,4.2215,4.2229,4.2266,4.2275,4.2332,4.2267,4.2323,4.2325,4.2317,4.2448,4.2469,4.2568,4.2404,4.2406,4.2408,0,4.1993,4.2031,4.2129,4.2158,4.2177,4.2222,4.2262,4.2301,4.2329,4.2332,4.2358,4.2346,4.2401,4.2354,4.243,4.2386,4.2408,4.2416,4.2419,4.2425,4.2372,4.2457,4.2599,4.2614,4.2429,4.2428,4.2426,0,4.2079,4.2154,4.2223,4.2241,4.2276,4.2308,4.2323,4.2349,4.2376,4.241,4.2427,4.2467,4.2489,4.2519,4.2517,4.2483,4.2595,4.2547,4.2598,4.2598,4.2623,4.2622,4.2771,4.2636,4.2636,4.2636,4.2635,0,4.2194,4.2256,4.2262,4.2305,4.2372,4.2369,4.2435,4.2447,4.247,4.2514,4.2495,4.2536,4.2531,4.2571,4.257,4.2633,4.2643,4.2646,4.2645,4.2648,4.2648,4.2663,4.2656,4.264,4.2639,4.2638,4.2637,0,4.2302,4.2309,4.2383,4.2411,4.2419,4.2468,4.2491,4.253,4.2536,4.2591,4.2604,4.2613,4.266,4.2661,4.2713,4.2712,4.279,4.2781,4.2782,4.278,4.2831,4.2827,4.2997,4.3019,4.2869,4.287,4.2871,0,4.2376,4.2423,4.2456,4.2485,4.2504,4.255,4.2578,4.2575,4.2605,4.2641,4.2676,4.2721,4.2758,4.2833,4.2843,4.2883,4.2875,4.2932,4.2881,4.2883,4.2877,4.2875,4.2879,4.2942,4.2944,4.2945,4.2946,0,4.2505,4.2507,4.2549,4.2593,4.2628,4.2661,4.2692,4.2716,4.2717,4.2751,4.28,4.2828,4.2883,4.2928,4.2967,4.2981,4.2964,4.2962,4.2976,4.298,4.2979,4.2981,4.281,4.2958,4.2957,4.2956,4.2955,4.2955,4.2599,4.264,4.2671,4.2718,4.2742,4.2772,4.2811,4.2823,4.2864,4.291,4.2906,4.296,4.2986,4.3038,4.3055,4.3096,4.3076,4.3096,4.3102,4.3107,4.3113,4.2972,4.3103,4.3102,4.3102,4.3102,4.3102,0,4.2728,4.2747,4.2791,4.2837,4.2874,4.2857,4.289,4.2922,4.2971,4.2998,4.3035,4.3091,4.3134,4.3148,4.319,4.3221,4.3214,4.3232,4.323,4.3233,4.3128,4.3112,4.3237,4.3237,4.3237,4.3237,4.3237,4.3237,4.28,4.2869,4.2875,4.2955,4.2972,4.3027,4.3048,4.3075,4.3097,4.3161,4.3199,4.3208,4.323,4.3274,4.3312,4.3315,4.3332,4.3353,4.3353,4.3254,4.3241,4.3228,4.3213,4.3357,4.3357,4.3455,4.3456,4.3457]}]]